Total_Precipitation_Accumulation
0.64 0.92 0.98 0.84 0.86 0.93 0.85 0.85 0.84 0.75 0.65 0.67 0.61 0.57 0.60 0.51 0.38 0.30 0.25 0.25 0.25 0.25 0.24 0.22 0.19 0.18 0.19 0.18 0.19 0.24 0.29 0.32 0.34 0.42 0.53 0.62 0.72 0.90 1.11 1.17 1.22 1.36 1.38 1.40
0.69 0.73 0.60 0.64 0.71 0.81 0.78 0.73 0.76 0.66 0.56 0.55 0.56 0.56 0.55 0.46 0.37 0.27 0.24 0.20 0.18 0.20 0.19 0.15 0.14 0.14 0.13 0.11 0.12 0.18 0.27 0.36 0.42 0.48 0.62 0.77 1.00 1.11 1.26 1.41 1.39 1.42 1.47 1.50
0.58 0.51 0.47 0.56 0.67 0.75 0.76 0.67 0.60 0.59 0.56 0.54 0.52 0.62 0.58 0.49 0.36 0.27 0.24 0.20 0.17 0.19 0.17 0.12 0.11 0.11 0.11 0.09 0.11 0.18 0.32 0.51 0.72 0.82 1.05 1.33 1.58 1.66 1.59 1.58 1.62 1.61 1.64 1.70
0.65 0.47 0.48 0.57 0.60 0.61 0.73 0.51 0.43 0.49 0.55 0.61 0.47 0.61 0.52 0.46 0.43 0.32 0.27 0.24 0.20 0.22 0.23 0.17 0.15 0.13 0.12 0.13 0.23 0.38 0.62 0.92 1.17 1.32 1.52 1.72 1.83 1.87 1.80 1.82 1.80 1.78 1.70 1.63
0.66 0.50 0.50 0.56 0.52 0.48 0.59 0.47 0.43 0.47 0.51 0.50 0.40 0.45 0.41 0.39 0.46 0.41 0.37 0.34 0.33 0.32 0.27 0.27 0.28 0.27 0.32 0.42 0.61 0.89 1.15 1.39 1.53 1.58 1.68 1.88 2.04 2.19 2.20 2.09 1.94 1.82 1.79 1.72
0.56 0.49 0.53 0.55 0.49 0.43 0.47 0.51 0.53 0.51 0.53 0.57 0.39 0.34 0.40 0.37 0.41 0.44 0.46 0.40 0.37 0.34 0.34 0.42 0.53 0.63 0.76 0.86 1.03 1.24 1.39 1.53 1.52 1.52 1.58 1.71 1.90 2.06 2.08 2.10 2.07 1.93 1.79 1.69
0.56 0.55 0.51 0.46 0.51 0.50 0.50 0.60 0.73 0.71 0.66 0.56 0.33 0.39 0.40 0.31 0.32 0.38 0.42 0.41 0.39 0.37 0.45 0.62 0.78 0.92 1.02 1.13 1.23 1.26 1.25 1.29 1.30 1.32 1.36 1.44 1.50 1.54 1.60 1.70 1.63 1.50 1.37 1.31
0.45 0.52 0.44 0.37 0.38 0.44 0.45 0.45 0.61 0.68 0.58 0.48 0.37 0.51 0.46 0.34 0.30 0.30 0.33 0.39 0.48 0.60 0.71 0.82 0.92 1.01 1.05 1.18 1.23 1.18 1.15 1.13 1.06 1.00 1.06 1.07 1.12 1.17 1.20 1.22 1.18 1.09 1.04 1.01
0.33 0.39 0.34 0.29 0.28 0.32 0.38 0.36 0.38 0.51 0.46 0.46 0.43 0.54 0.49 0.33 0.27 0.27 0.29 0.37 0.51 0.72 0.97 1.13 1.12 1.02 0.93 0.97 1.05 1.03 0.98 0.93 0.85 0.79 0.82 0.85 0.92 0.95 0.93 0.91 0.86 0.84 0.78 0.79
0.27 0.36 0.36 0.32 0.30 0.30 0.29 0.31 0.39 0.56 0.60 0.59 0.51 0.58 0.50 0.36 0.32 0.29 0.34 0.43 0.61 0.82 1.03 1.30 1.43 1.30 1.02 0.83 0.85 0.82 0.78 0.81 0.80 0.76 0.77 0.77 0.70 0.65 0.66 0.69 0.63 0.62 0.67 0.71
0.20 0.29 0.34 0.32 0.31 0.32 0.29 0.32 0.39 0.51 0.50 0.65 0.84 0.85 0.65 0.54 0.49 0.47 0.51 0.56 0.62 0.90 1.19 1.34 1.39 1.25 1.07 0.79 0.72 0.71 0.67 0.71 0.77 0.71 0.72 0.72 0.61 0.49 0.47 0.47 0.45 0.45 0.49 0.55
0.15 0.25 0.29 0.26 0.25 0.22 0.28 0.34 0.45 0.64 0.64 0.59 0.73 0.80 0.56 0.59 0.67 0.60 0.64 0.73 0.74 0.79 0.84 0.87 0.98 1.00 0.93 0.79 0.72 0.78 0.82 0.81 0.73 0.66 0.62 0.58 0.51 0.44 0.43 0.41 0.38 0.40 0.45 0.47
0.11 0.22 0.31 0.29 0.29 0.27 0.38 0.44 0.37 0.50 0.62 0.61 0.72 0.76 0.49 0.51 0.62 0.62 0.69 0.77 0.78 0.73 0.62 0.55 0.66 0.80 0.75 0.68 0.71 0.79 0.93 0.93 0.84 0.72 0.61 0.57 0.53 0.49 0.47 0.42 0.41 0.41 0.48 0.59
0.07 0.15 0.21 0.26 0.26 0.32 0.58 0.67 0.46 0.52 0.69 0.56 0.53 0.56 0.47 0.48 0.55 0.59 0.66 0.71 0.69 0.59 0.49 0.43 0.42 0.44 0.43 0.45 0.49 0.61 0.87 1.05 1.02 0.92 0.78 0.69 0.61 0.54 0.48 0.44 0.43 0.42 0.45 0.51
0.07 0.11 0.10 0.10 0.13 0.19 0.39 0.45 0.36 0.34 0.34 0.37 0.35 0.38 0.48 0.56 0.57 0.58 0.59 0.52 0.43 0.36 0.31 0.26 0.23 0.23 0.24 0.29 0.36 0.46 0.73 0.93 0.94 0.94 0.81 0.67 0.56 0.45 0.43 0.46 0.49 0.46 0.41 0.44
0.07 0.08 0.07 0.07 0.07 0.09 0.14 0.11 0.10 0.13 0.18 0.24 0.28 0.38 0.45 0.47 0.47 0.50 0.49 0.36 0.31 0.26 0.24 0.23 0.20 0.17 0.14 0.14 0.19 0.28 0.47 0.63 0.69 0.76 0.72 0.56 0.50 0.44 0.40 0.42 0.48 0.49 0.39 0.38
0.08 0.10 0.11 0.09 0.06 0.09 0.09 0.06 0.12 0.15 0.17 0.20 0.31 0.43 0.49 0.51 0.56 0.85 0.87 0.56 0.38 0.33 0.28 0.29 0.27 0.24 0.21 0.17 0.16 0.18 0.25 0.34 0.41 0.46 0.47 0.37 0.35 0.42 0.43 0.45 0.44 0.38 0.31 0.34
0.07 0.10 0.14 0.12 0.10 0.14 0.09 0.05 0.11 0.15 0.15 0.14 0.17 0.20 0.25 0.37 0.51 0.68 0.76 0.61 0.43 0.40 0.31 0.27 0.24 0.22 0.19 0.16 0.15 0.15 0.17 0.20 0.22 0.22 0.18 0.15 0.22 0.32 0.33 0.31 0.28 0.24 0.23 0.29
0.06 0.09 0.12 0.12 0.21 0.18 0.06 0.04 0.06 0.08 0.07 0.05 0.07 0.07 0.09 0.12 0.14 0.15 0.21 0.24 0.21 0.18 0.13 0.09 0.08 0.07 0.06 0.06 0.06 0.05 0.04 0.04 0.04 0.04 0.04 0.05 0.07 0.08 0.07 0.07 0.08 0.12 0.16 0.20
0.05 0.07 0.10 0.11 0.17 0.14 0.05 0.02 0.02 0.05 0.09 0.03 0.02 0.02 0.03 0.06 0.10 0.08 0.15 0.10 0.03 0.02 0.02 0.03 0.04 0.04 0.03 0.03 0.04 0.03 0.02 0.03 0.02 0.02 0.02 0.02 0.03 0.03 0.02 0.03 0.02 0.04 0.07 0.10
0.06 0.08 0.09 0.10 0.13 0.06 0.02 0.02 0.02 0.05 0.06 0.02 0.01 0.01 0.01 0.01 0.02 0.03 0.09 0.08 0.01 0.01 0.01 0.03 0.03 0.04 0.03 0.03 0.02 0.02 0.01 0.02 0.03 0.03 0.02 0.01 0.02 0.02 0.03 0.04 0.03 0.02 0.02 0.03
0.04 0.07 0.06 0.07 0.09 0.07 0.02 0.02 0.02 0.02 0.01 0.01 0.02 0.01 0.01 0.01 0.01 0.01 0.04 0.06 0.01 0.01 0.02 0.03 0.03 0.03 0.04 0.04 0.02 0.02 0.01 0.02 0.02 0.02 0.02 0.02 0.02 0.02 0.02 0.05 0.04 0.03 0.02 0.02
0.02 0.04 0.04 0.04 0.04 0.03 0.01 0.01 0.02 0.02 0.01 0.01 0.02 0.02 0.01 0.01 0.01 0.01 0.02 0.06 0.02 0.01 0.02 0.02 0.02 0.03 0.03 0.04 0.04 0.03 0.02 0.03 0.04 0.04 0.03 0.02 0.02 0.02 0.02 0.03 0.03 0.03 0.03 0.02
0.02 0.02 0.02 0.02 0.02 0.02 0.01 0.01 0.01 0.01 0.01 0.01 0.02 0.03 0.02 0.02 0.01 0.00 0.01 0.05 0.03 0.01 0.01 0.01 0.01 0.02 0.02 0.03 0.04 0.04 0.04 0.06 0.05 0.04 0.04 0.04 0.04 0.03 0.03 0.03 0.03 0.03 0.02 0.02
0.02 0.02 0.02 0.02 0.01 0.01 0.01 0.00 0.00 0.00 0.01 0.01 0.01 0.02 0.03 0.03 0.02 0.01 0.01 0.02 0.02 0.01 0.01 0.01 0.01 0.01 0.01 0.02 0.03 0.04 0.04 0.05 0.06 0.05 0.05 0.04 0.05 0.05 0.05 0.04 0.04 0.03 0.03 0.03
0.01 0.01 0.02 0.02 0.01 0.01 0.00 0.00 0.00 0.00 0.00 0.00 0.00 0.01 0.02 0.03 0.02 0.01 0.01 0.01 0.01 0.01 0.01 0.01 0.01 0.02 0.02 0.02 0.02 0.03 0.03 0.04 0.05 0.05 0.05 0.04 0.04 0.05 0.05 0.05 0.05 0.04 0.04 0.04